Theta_e
332 334 336 334 333 329 313 310 311 314 315 315 316 316 315 315 316 318 319 317 316 316 314 311 310 315 317 316 318 317 316 316
332 331 332 328 325 317 312 311 312 316 315 316 317 317 315 316 318 319 319 318 315 314 313 310 310 313 315 314 314 316 316 315
325 330 326 322 322 317 313 313 316 317 317 317 317 315 314 316 318 319 319 319 317 314 314 314 312 312 312 313 312 313 314 313
330 330 328 325 322 316 320 317 319 318 316 316 314 314 316 317 317 318 319 319 317 315 316 316 314 313 310 311 310 310 310 310
327 327 326 324 319 315 312 320 319 317 316 315 316 315 315 316 315 316 319 319 317 316 317 316 314 314 308 310 310 310 310 310
326 326 324 319 317 313 315 320 318 317 316 316 315 316 318 317 317 318 320 320 318 316 315 315 315 311 306 309 309 309 310 309
326 323 320 318 315 315 318 317 319 318 318 316 315 317 317 317 316 317 320 319 319 317 318 315 311 308 309 305 307 307 308 308
325 323 318 315 317 321 319 317 317 315 316 314 315 316 317 316 320 321 321 320 320 319 317 313 313 311 308 310 309 307 308 308
323 321 317 317 318 317 317 314 312 315 314 315 315 320 320 322 322 323 322 321 321 319 317 315 313 312 310 308 309 309 309 308
320 320 319 317 316 314 314 312 314 316 314 315 317 321 323 323 322 323 322 321 321 319 317 315 314 312 311 310 310 310 309 308
320 319 317 314 315 315 314 315 315 316 315 316 316 318 317 315 318 322 322 322 321 320 318 315 314 312 311 310 310 310 310 311
319 317 317 315 317 317 318 316 317 316 317 317 319 320 320 315 320 324 323 322 321 320 317 315 314 313 311 310 309 307 311 310
318 318 319 318 317 316 315 316 317 317 318 322 320 323 321 319 322 324 323 322 322 320 317 316 315 313 311 310 307 310 311 310
315 315 314 314 313 314 314 315 315 316 320 320 320 321 323 323 322 324 323 323 323 320 318 316 315 313 311 310 311 312 311 311
316 315 313 315 316 316 317 320 320 319 316 315 321 324 321 321 324 324 323 323 322 320 318 317 315 313 309 309 312 312 310 310
316 316 315 315 319 319 320 320 321 320 315 317 322 323 321 322 323 323 322 323 322 320 318 317 316 311 310 309 309 310 311 310
319 318 317 319 320 321 320 318 322 321 320 320 321 324 323 323 324 323 323 323 322 320 318 316 315 313 312 310 311 310 311 310
323 321 322 321 320 322 324 324 325 323 321 321 325 325 326 325 324 325 324 323 322 321 320 319 318 318 316 310 310 310 310 308
326 325 324 324 324 324 322 324 326 325 321 321 323 327 326 324 324 323 323 324 322 322 320 319 318 317 314 309 309 308 308 308
327 327 326 326 326 326 326 325 325 327 323 323 326 326 323 325 325 323 323 324 322 321 319 318 317 315 311 310 309 307 308 307
Wind_Speed
26 41 38 32 31 30 25 29 35 36 34 33 31 29 26 27 26 24 22 20 20 20 18 17 19 20 20 19 10 4 6 9
18 29 38 31 31 31 33 32 34 34 34 32 30 28 26 25 24 21 20 18 17 17 17 17 19 21 20 17 10 5 5 6
19 16 28 30 30 29 29 30 31 31 31 31 28 28 26 23 20 17 16 15 15 15 18 18 16 14 15 14 7 6 2 6
29 31 28 27 31 28 27 30 31 31 31 30 29 28 24 20 17 15 13 13 14 17 14 11 11 9 10 13 4 1 3 5
28 29 32 36 42 41 38 28 30 30 30 30 27 23 20 18 16 14 12 11 12 11 9 7 7 5 3 11 5 1 2 5
31 29 29 31 33 39 38 36 35 32 31 27 25 21 18 17 15 13 11 11 11 8 6 4 3 4 6 12 7 4 0 4
32 31 31 38 39 41 42 39 34 31 28 23 20 15 15 14 12 10 11 11 9 6 2 5 5 5 8 11 10 8 1 3
37 36 40 41 41 42 44 42 33 34 25 27 20 12 11 11 11 9 12 9 6 5 6 5 5 3 3 5 7 7 4 6
33 36 38 41 43 40 40 37 35 34 30 23 20 14 13 12 10 8 9 7 11 9 8 6 6 6 5 5 4 2 1 6
31 36 39 39 34 39 40 43 32 36 32 22 17 17 15 16 16 17 15 13 14 13 14 11 11 9 8 8 6 5 4 8
27 29 30 37 38 39 38 37 37 35 36 18 16 18 19 20 17 17 15 16 18 19 17 17 13 11 11 10 10 10 8 9
25 32 34 37 38 36 33 38 35 30 25 24 20 19 20 23 19 18 19 21 21 21 16 15 15 13 14 13 12 13 12 13
32 35 36 36 37 35 36 36 30 30 30 23 22 23 22 22 22 22 23 21 21 21 21 21 21 18 15 15 15 16 18 17
33 35 38 34 31 34 36 33 32 30 28 27 28 27 25 26 24 27 24 24 22 23 24 25 24 22 20 20 15 15 21 21
38 41 38 36 35 34 33 29 28 28 29 30 29 28 24 29 27 28 26 24 23 26 26 26 23 22 20 17 9 6 7 12
38 40 40 38 35 32 33 32 34 31 29 31 29 28 28 32 29 29 30 26 22 26 27 27 23 17 19 20 21 14 7 5
35 38 38 36 33 33 33 37 33 26 27 29 30 31 31 31 27 29 30 29 26 27 25 28 26 23 26 24 22 17 10 14
34 36 37 36 35 35 37 36 35 36 34 34 31 34 32 32 32 32 28 30 31 29 29 28 31 31 31 31 28 24 19 17
39 37 40 39 38 35 36 40 36 40 32 30 32 29 29 27 33 31 34 34 34 29 27 28 32 30 31 32 35 34 30 31
43 43 42 44 43 43 40 37 40 35 37 34 29 30 31 38 34 28 32 36 36 30 27 28 30 30 31 29 33 32 30 19
Wind_Direction
191 189 164 171 175 151 162 159 152 146 141 141 141 138 136 130 124 120 114 112 110 109 106 98 107 126 123 106 101 77 32 33
140 163 148 148 144 153 159 158 150 143 141 141 141 138 136 133 128 122 115 111 108 109 101 92 110 121 127 113 89 79 30 21
155 142 130 138 131 146 152 150 143 140 140 140 140 139 139 136 130 123 117 113 108 106 101 87 93 108 112 113 84 91 33 4
167 169 159 150 145 143 150 149 148 146 144 143 142 136 137 135 135 134 129 125 113 112 112 109 113 95 84 128 121 54 349 2
166 165 165 168 156 161 157 153 147 145 145 143 137 137 139 153 152 157 155 140 130 127 126 121 103 93 71 136 148 171 354 349
174 171 166 166 166 157 157 154 151 144 139 148 149 150 156 167 163 162 166 156 150 157 142 125 203 229 132 153 171 201 230 20
176 170 171 160 158 165 165 161 148 147 148 150 157 154 162 167 176 181 178 171 169 176 178 221 185 146 126 151 169 220 282 349
170 175 169 164 166 164 160 152 153 151 163 163 163 171 183 193 187 172 185 189 193 210 225 175 145 134 164 163 139 179 273 294
175 173 175 170 171 171 165 179 184 172 162 163 171 184 193 198 215 200 212 200 221 199 204 187 211 239 195 205 186 172 286 287
177 169 168 166 173 171 181 188 201 180 175 173 193 199 191 210 209 218 219 210 209 209 210 218 231 240 240 234 249 295 307 298
175 183 179 187 176 177 191 200 188 195 185 192 219 220 227 237 231 202 204 215 214 219 227 234 226 231 247 262 266 278 303 300
159 167 168 177 182 180 176 182 187 178 207 218 224 224 237 239 224 203 220 219 224 235 225 218 229 241 246 258 264 272 282 276
164 165 169 173 175 181 173 172 183 202 206 218 217 232 235 228 219 210 222 234 239 229 222 221 230 230 224 235 248 267 271 266
168 171 173 170 176 175 178 186 195 209 208 213 223 227 229 226 221 219 223 232 242 229 231 229 228 237 235 240 249 252 249 258
174 170 178 179 181 182 190 199 212 223 218 224 226 232 233 230 218 225 227 233 240 224 230 233 241 245 240 234 229 232 211 238
179 181 182 188 191 195 197 198 211 220 222 221 228 236 237 229 220 227 232 229 231 225 233 239 238 228 234 243 249 247 265 261
191 190 196 199 201 203 206 210 216 220 225 226 230 235 234 237 236 229 227 232 229 221 231 226 226 237 246 238 239 230 274 277
206 203 204 205 206 209 211 217 222 221 226 227 231 232 230 235 235 236 233 235 234 230 235 242 254 274 250 228 222 233 260 288
212 210 211 213 212 214 217 223 226 225 223 224 230 226 233 239 243 242 239 239 237 245 249 263 261 266 247 228 237 246 254 274
217 215 217 220 222 223 223 224 224 224 219 222 229 235 248 251 251 242 238 239 240 243 256 265 264 250 240 244 249 243 262 244